Tracking 19817 objects as of 19-Aug-2019
HD Live streaming from Space Station
objects crossing your sky now

SL-12 R/B(2)

Track SL-12 R/B(2) now!


NORAD ID: 29673
Int'l Code: 2006-062D
Perigee: 19,057.8 km
Apogee: 19,167.9 km
Inclination: 65.1 °
Period: 674.8 minutes
Semi major axis: 25483 km
RCS: 0.7844 m2 (medium)
Launch date: December 25, 2006
Source: Commonwealth of Independent States (former USSR) (CIS)
Launch site: TYURATAM MISSILE AND SPACE COMPLEX (TTMTR)

Note: This is a ROCKET BODY
aabbcc
Your satellite tracking list
Your tracking list is empty




NASA's NSSDC Master Catalog

Two Line Element Set (TLE):
1 29673U 06062D   19228.13613587  .00000028  00000-0  00000+0 0  9996
2 29673  65.0836 277.7164 0021599 196.3048 170.0484  2.13404976 98724
Source of the keplerian elements: AFSPC